Content
SEND FEEDBACK

Daily
Averages
Monthly
Summary
United States of America

SOUTHPORT, NORTH CAROLINA


Home > North America > United States > North Carolina
Elevation: 38 feet     Latitude: 34 00N     Longitude: 078 01W

WEATHER
 
SELECT A DAY
Number of Records: 136,557;   Date Range: 8/21/01 - 8/12/14
 
SHARE

PRINT THIS DATA

[ ← Previous Day ]
WEATHER ALMANAC - FEBRUARY 18, 2013
[ Next Day → ]
[ °C ]   °F
Weather ElementAverageHighLow
Temperature35.7 °F45.7 °F (11:55 am)24.8 °F (7:15 am)
Dewpoint21.6 °F28.9 °F (11:35 pm)16.7 °F (12:55 am)
Humidity59.4 %88 % (11:15 pm)35 % (11:15 am)
Barometer30.38 in30.45 in (9:15 am)30.30 in (11:55 pm)
Wind Speed3.6 mph10.4 mph (12:15 pm)
Weather ElementAverage
Visibility10 mi
Wind DirectionESE (98.8 °)

Weather ElementTotal
Precipitation---
Heating Degree Days29.8 (Base 65)
Averaged from 69 records on February 18, 2013
WEATHER CONDITIONS BREAKOUT
WIND DIRECTION BREAKOUT
WEATHER BY HOUR - FEBRUARY 18, 2013
[ °C ]   °F
Local TimeTemperatureDewpointHumidityBarometerVisibilityWind DirectionWind SpeedGust SpeedPrecipitationEventsConditions
12:35 AM30.0 °F17.6 °F60 %30.31 in10.0 miCalmClear
12:55 AM30.0 °F16.7 °F58 %30.32 in10.0 miNW (310°)3.5 mphClear
1:15 AM30.0 °F16.9 °F58 %30.32 in10.0 miNW (310°)3.5 mphClear
1:35 AM29.8 °F16.9 °F59 %30.33 in10.0 miCalmClear
1:55 AM29.3 °F17.4 °F61 %30.33 in10.0 miCalmClear
2:15 AM29.1 °F17.4 °F62 %30.33 in10.0 miNW (310°)4.6 mphClear
2:35 AM29.3 °F17.1 °F60 %30.32 in10.0 miNW (320°)4.6 mphClear
2:55 AM29.3 °F17.1 °F60 %30.33 in10.0 miNNW (340°)4.6 mphClear
3:15 AM28.2 °F18.1 °F66 %30.33 in10.0 miNNW (330°)4.6 mphClear
3:35 AM28.8 °F17.6 °F63 %30.33 in10.0 miNW (320°)3.5 mphClear
3:55 AM28.4 °F17.8 °F64 %30.34 in10.0 miNW (320°)3.5 mphClear
4:15 AM26.8 °F19.0 °F73 %30.34 in10.0 miNorth (350°)5.8 mphClear
4:35 AM27.1 °F18.9 °F71 %30.35 in10.0 miNorth (360°)5.8 mphClear
4:55 AM25.9 °F19.4 °F76 %30.36 in10.0 miNorth (10°)5.8 mphClear
5:15 AM25.5 °F19.4 °F78 %30.37 in10.0 miNNE (20°)3.5 mphClear
5:35 AM25.5 °F19.4 °F78 %30.38 in10.0 miNNE (20°)3.5 mphClear
5:55 AM25.3 °F19.8 °F79 %30.38 in10.0 miNNE (20°)3.5 mphClear
6:15 AM25.2 °F19.4 °F79 %30.38 in10.0 miNNE (20°)3.5 mphClear
6:35 AM25.3 °F19.9 °F80 %30.39 in10.0 miNNE (20°)4.6 mphClear
6:55 AM25.0 °F19.4 °F79 %30.39 in10.0 miNNE (30°)3.5 mphClear
7:15 AM24.8 °F19.4 °F80 %30.40 in10.0 miCalmClear
7:35 AM25.7 °F19.2 °F76 %30.41 in10.0 miCalmClear
7:55 AM28.0 °F18.3 °F67 %30.42 in10.0 miCalmClear
8:15 AM30.7 °F17.6 °F58 %30.43 in10.0 miNNE (20°)3.5 mphClear
8:35 AM32.7 °F17.8 °F54 %30.44 in10.0 miNE (40°)3.5 mphClear
8:55 AM35.4 °F17.8 °F49 %30.44 in10.0 miNE (50°)3.5 mphClear
9:15 AM37.8 °F19.4 °F48 %30.45 in10.0 miENE (60°)3.5 mphClear
9:35 AM40.1 °F19.6 °F44 %30.45 in10.0 miEast (80°)4.6 mphClear
9:55 AM41.0 °F18.1 °F40 %30.45 in10.0 miEast (80°)3.5 mphClear
10:15 AM43.0 °F18.7 °F38 %30.45 in10.0 miEast (100°)5.8 mphClear
10:35 AM43.9 °F19.4 °F38 %30.45 in10.0 miEast (100°)6.9 mphClear
10:55 AM43.9 °F18.7 °F37 %30.45 in10.0 miEast (80°)4.6 mphClear
11:15 AM44.2 °F18.3 °F35 %30.45 in10.0 miENE (60°)4.6 mphClear
11:35 AM45.3 °F19.8 °F36 %30.44 in10.0 miEast (80°)4.6 mphClear
11:55 AM45.7 °F19.8 °F36 %30.44 in10.0 miESE (110°)4.6 mphClear
12:15 PM45.3 °F22.1 °F40 %30.43 in10.0 miSE (140°)10.4 mphClear
12:35 PM44.1 °F19.4 °F37 %30.42 in10.0 miESE (120°)8.1 mphClear
12:55 PM44.8 °F20.7 °F38 %30.42 in10.0 miESE (120°)8.1 mphClear
1:15 PM44.8 °F21.6 °F40 %30.40 in10.0 miSE (130°)6.9 mphClear
1:35 PM45.3 °F22.3 °F40 %30.40 in10.0 miSE (140°)8.1 mphClear
1:55 PM44.8 °F20.8 °F39 %30.40 in10.0 miESE (110°)9.2 mphClear
2:15 PM44.8 °F21.9 °F40 %30.40 in10.0 miSE (140°)8.1 mphClear
2:35 PM45.1 °F21.7 °F40 %30.39 in10.0 miSE (130°)5.8 mphClear
2:55 PM45.3 °F20.1 °F37 %30.39 in10.0 miSouth (170°)6.9 mphClear
3:15 PM44.8 °F21.7 °F40 %30.39 in10.0 miSouth (170°)6.9 mphClear
3:35 PM45.3 °F21.9 °F40 %30.39 in10.0 miSSE (150°)8.1 mphClear
3:55 PM44.8 °F22.6 °F42 %30.40 in10.0 miSouth (170°)8.1 mphClear
4:15 PM44.6 °F22.5 °F42 %30.39 in10.0 miSouth (180°)6.9 mphClear
4:35 PM44.6 °F21.0 °F39 %30.39 in10.0 miSouth (170°)6.9 mphClear
4:55 PM44.4 °F21.7 °F41 %30.39 in10.0 miSouth (190°)5.8 mphClear
5:15 PM43.9 °F22.5 °F43 %30.39 in10.0 miSSE (160°)6.9 mphClear
5:35 PM43.3 °F22.6 °F44 %30.39 in10.0 miSSE (160°)3.5 mphClear
6:15 PM41.2 °F23.7 °F50 %30.39 in10.0 miCalmClear
6:35 PM40.6 °F25.0 °F54 %30.39 in10.0 miCalmClear
6:55 PM38.5 °F27.0 °F63 %30.38 in10.0 miCalmClear
7:15 PM37.4 °F27.5 °F67 %30.38 in10.0 miCalmClear
7:35 PM36.0 °F28.8 °F75 %30.38 in10.0 miCalmClear
7:55 PM34.9 °F28.4 °F77 %30.37 in10.0 miCalmClear
8:15 PM34.3 °F28.4 °F79 %30.37 in10.0 miCalmClear
8:35 PM33.8 °F28.8 °F82 %30.37 in10.0 miCalmClear
8:55 PM33.3 °F28.6 °F83 %30.37 in10.0 miCalmClear
9:15 PM32.9 °F28.6 °F84 %30.37 in10.0 miCalmClear
9:35 PM32.9 °F28.2 °F83 %30.36 in10.0 miCalmClear
9:55 PM32.4 °F28.4 °F85 %30.35 in10.0 miCalmClear
10:15 PM32.2 °F27.9 °F84 %30.34 in10.0 miCalmClear
10:35 PM32.0 °F28.4 °F87 %30.32 in10.0 miCalmClear
11:15 PM32.0 °F28.8 °F88 %30.32 in10.0 miCalmClear
11:35 PM32.0 °F28.9 °F88 %30.32 in10.0 miCalmClear
11:55 PM32.0 °F28.9 °F88 %30.30 in10.0 miCalmClear
Hourly data recorded from KSUT, located miles away from Southport, North Carolina







STORIES FROM OUR PARTNERS